When you browse on this site, cookies collect data to enhance your experience and personalize the content and advertising you see.
Visit our Privacy Policy to learn more. By continuing to use the site, you agree to this use of cookies and data.
  • în România
  • Lista ţărilor
  • Pe 7 zile
  • Temperatura apei
  • Meteo pe hartă
  • Widget-uri
  • user-avatar
    Intrare

    Meteo pe oră la Porto Alegre

    Astăzi, 15 Septembrie, Duminică

    Timp Temperatura Precipitaţii Vânt Presiune Umiditate
    00:00 +19°C° 0.2 mm 1 m/s 757 mmHg 91%
    01:00 +19°C° 0 mm 1 m/s 757 mmHg 92%
    02:00 +19°C° 0 mm 1 m/s 756 mmHg 92%
    03:00 +19°C° 0 mm 1 m/s 756 mmHg 92%
    04:00 +19°C° 0 mm 1 m/s 756 mmHg 92%
    05:00 +19°C° 0 mm 1 m/s 756 mmHg 92%
    06:00 +17°C° 0 mm 0 m/s 756 mmHg 92%
    07:00 +18°C° 0 mm 0 m/s 756 mmHg 85%
    08:00 +20°C° 0 mm 0 m/s 757 mmHg 79%
    09:00 +22°C° 0 mm 0 m/s 757 mmHg 73%
    10:00 +24°C° 0 mm 0 m/s 756 mmHg 66%
    11:00 +26°C° 0 mm 0 m/s 756 mmHg 59%
    12:00 +28°C° 0 mm 0 m/s 755 mmHg 52%
    13:00 +31°C° 0 mm 1 m/s 755 mmHg 52%
    14:00 +31°C° 0 mm 1 m/s 754 mmHg 51%
    15:00 +32°C° 0 mm 2 m/s 754 mmHg 50%
    16:00 +30°C° 0 mm 2 m/s 754 mmHg 56%
    17:00 +29°C° 0 mm 2 m/s 754 mmHg 62%
    18:00 +27°C° 0 mm 3 m/s 754 mmHg 68%
    19:00 +26°C° 0 mm 2 m/s 754 mmHg 70%
    20:00 +25°C° 0 mm 2 m/s 754 mmHg 72%
    21:00 +24°C° 0 mm 1 m/s 755 mmHg 74%
    22:00 +24°C° 0 mm 1 m/s 755 mmHg 76%
    23:00 +24°C° 0 mm 1 m/s 754 mmHg 77%

    Mâine, 16 Septembrie, Luni

    Timp Temperatura Precipitaţii Vânt Presiune Umiditate
    00:00 +24°C° 0 mm 1 m/s 754 mmHg 79%
    01:00 +24°C° 0 mm 1 m/s 754 mmHg 76%
    02:00 +24°C° 0 mm 1 m/s 753 mmHg 74%
    03:00 +24°C° 0 mm 1 m/s 752 mmHg 72%
    04:00 +24°C° 0 mm 1 m/s 752 mmHg 72%
    05:00 +24°C° 0 mm 1 m/s 753 mmHg 73%
    06:00 +24°C° 0 mm 1 m/s 753 mmHg 73%
    07:00 +23°C° 0.1 mm 2 m/s 753 mmHg 76%
    08:00 +22°C° 0.1 mm 3 m/s 754 mmHg 78%
    09:00 +22°C° 0.1 mm 4 m/s 755 mmHg 80%
    10:00 +23°C° 0 mm 4 m/s 755 mmHg 76%
    11:00 +25°C° 0 mm 4 m/s 755 mmHg 72%
    12:00 +27°C° 0 mm 3 m/s 755 mmHg 68%
    13:00 +26°C° 0.1 mm 4 m/s 755 mmHg 70%
    14:00 +25°C° 0.1 mm 4 m/s 755 mmHg 72%
    15:00 +25°C° 0.1 mm 5 m/s 755 mmHg 74%
    16:00 +22°C° 0.3 mm 5 m/s 756 mmHg 77%
    17:00 +21°C° 0.3 mm 6 m/s 757 mmHg 80%
    18:00 +19°C° 0.3 mm 6 m/s 758 mmHg 84%
    19:00 +17°C° 0.2 mm 6 m/s 758 mmHg 84%
    20:00 +17°C° 0.2 mm 5 m/s 759 mmHg 85%
    21:00 +17°C° 0.2 mm 4 m/s 760 mmHg 85%
    22:00 +17°C° 0.2 mm 4 m/s 759 mmHg 86%
    23:00 +17°C° 0.2 mm 4 m/s 759 mmHg 86%

    Poimâine, 17 Septembrie, Marţi

    Timp Temperatura Precipitaţii Vânt Presiune Umiditate
    00:00 +16°C° 0.2 mm 3 m/s 759 mmHg 87%
    01:00 +16°C° 0.5 mm 3 m/s 759 mmHg 87%
    02:00 +16°C° 0.5 mm 3 m/s 759 mmHg 88%
    03:00 +16°C° 0.5 mm 3 m/s 759 mmHg 88%
    04:00 +15°C° 0.2 mm 4 m/s 759 mmHg 87%
    05:00 +15°C° 0.2 mm 4 m/s 759 mmHg 85%
    06:00 +14°C° 0.2 mm 4 m/s 759 mmHg 83%
    07:00 +14°C° 0 mm 4 m/s 759 mmHg 81%
    08:00 +14°C° 0 mm 3 m/s 759 mmHg 79%
    09:00 +14°C° 0 mm 3 m/s 759 mmHg 77%
    10:00 +16°C° 0 mm 3 m/s 759 mmHg 74%
    11:00 +16°C° 0 mm 3 m/s 758 mmHg 72%
    12:00 +16°C° 0 mm 3 m/s 758 mmHg 70%
    13:00 +17°C° 0 mm 3 m/s 757 mmHg 69%
    14:00 +17°C° 0 mm 3 m/s 756 mmHg 68%
    15:00 +17°C° 0 mm 3 m/s 756 mmHg 67%
    16:00 +17°C° 0 mm 2 m/s 756 mmHg 69%
    17:00 +16°C° 0 mm 2 m/s 756 mmHg 70%
    18:00 +16°C° 0 mm 2 m/s 755 mmHg 71%
    19:00 +16°C° 0.1 mm 2 m/s 755 mmHg 73%
    20:00 +16°C° 0.1 mm 2 m/s 755 mmHg 75%
    21:00 +15°C° 0.1 mm 2 m/s 755 mmHg 77%
    22:00 +15°C° 0.4 mm 2 m/s 755 mmHg 79%
    23:00 +15°C° 0.4 mm 1 m/s 755 mmHg 81%

    18 Septembrie, Miercuri

    Timp Temperatura Precipitaţii Vânt Presiune Umiditate
    00:00 +15°C° 0.4 mm 1 m/s 755 mmHg 83%
    01:00 +15°C° 0.7 mm 1 m/s 754 mmHg 85%
    02:00 +15°C° 0.7 mm 1 m/s 754 mmHg 86%
    03:00 +15°C° 0.7 mm 1 m/s 754 mmHg 87%
    04:00 +15°C° 0.3 mm 2 m/s 754 mmHg 86%
    05:00 +15°C° 0.3 mm 2 m/s 755 mmHg 86%
    06:00 +15°C° 0.3 mm 2 m/s 755 mmHg 85%
    07:00 +15°C° 0.1 mm 2 m/s 756 mmHg 81%
    08:00 +16°C° 0.1 mm 1 m/s 756 mmHg 77%
    09:00 +16°C° 0.1 mm 0 m/s 756 mmHg 73%
    10:00 +19°C° 0 mm 1 m/s 756 mmHg 66%
    11:00 +20°C° 0 mm 1 m/s 756 mmHg 60%
    12:00 +22°C° 0 mm 1 m/s 756 mmHg 54%
    13:00 +21°C° 0 mm 2 m/s 756 mmHg 50%
    14:00 +21°C° 0 mm 2 m/s 756 mmHg 46%
    15:00 +21°C° 0 mm 2 m/s 755 mmHg 43%
    16:00 +20°C° 0 mm 2 m/s 755 mmHg 46%
    17:00 +19°C° 0 mm 3 m/s 755 mmHg 49%
    18:00 +18°C° 0 mm 3 m/s 755 mmHg 51%
    19:00 +17°C° 0 mm 3 m/s 755 mmHg 56%
    20:00 +16°C° 0 mm 3 m/s 756 mmHg 61%
    21:00 +14°C° 0 mm 3 m/s 756 mmHg 66%
    22:00 +14°C° 0 mm 3 m/s 756 mmHg 66%
    23:00 +13°C° 0 mm 3 m/s 755 mmHg 66%

    19 Septembrie, Joi

    Timp Temperatura Precipitaţii Vânt Presiune Umiditate
    00:00 +13°C° 0 mm 3 m/s 755 mmHg 66%
    01:00 +13°C° 0 mm 3 m/s 754 mmHg 68%
    02:00 +13°C° 0 mm 3 m/s 754 mmHg 70%
    03:00 +13°C° 0 mm 3 m/s 754 mmHg 72%
    04:00 +13°C° 0 mm 3 m/s 753 mmHg 71%
    05:00 +14°C° 0 mm 2 m/s 753 mmHg 71%
    06:00 +14°C° 0 mm 2 m/s 753 mmHg 70%
    07:00 +16°C° 0 mm 2 m/s 752 mmHg 68%
    08:00 +17°C° 0 mm 2 m/s 752 mmHg 66%
    09:00 +19°C° 0 mm 1 m/s 752 mmHg 64%
    10:00 +22°C° 0 mm 1 m/s 751 mmHg 61%
    11:00 +24°C° 0 mm 1 m/s 751 mmHg 58%
    12:00 +26°C° 0 mm 1 m/s 750 mmHg 55%
    13:00 +27°C° 0 mm 1 m/s 750 mmHg 55%
    14:00 +27°C° 0 mm 2 m/s 749 mmHg 55%
    15:00 +28°C° 0 mm 2 m/s 749 mmHg 55%
    16:00 +26°C° 0 mm 2 m/s 749 mmHg 61%
    17:00 +25°C° 0 mm 2 m/s 749 mmHg 66%
    18:00 +24°C° 0 mm 3 m/s 750 mmHg 72%
    19:00 +22°C° 0 mm 3 m/s 751 mmHg 75%
    20:00 +21°C° 0 mm 3 m/s 752 mmHg 79%
    21:00 +20°C° 0 mm 3 m/s 752 mmHg 82%
    22:00 +19°C° 0 mm 3 m/s 753 mmHg 83%
    23:00 +19°C° 0 mm 3 m/s 753 mmHg 84%

    20 Septembrie, Vineri

    Timp Temperatura Precipitaţii Vânt Presiune Umiditate
    00:00 +18°C° 0 mm 3 m/s 754 mmHg 85%
    01:00 +18°C° 0 mm 3 m/s 754 mmHg 85%
    02:00 +17°C° 0 mm 3 m/s 755 mmHg 85%
    03:00 +17°C° 0 mm 2 m/s 755 mmHg 85%
    04:00 +17°C° 0 mm 3 m/s 756 mmHg 84%
    05:00 +17°C° 0 mm 3 m/s 756 mmHg 83%
    06:00 +17°C° 0 mm 4 m/s 757 mmHg 81%
    07:00 +17°C° 0 mm 4 m/s 758 mmHg 79%
    08:00 +17°C° 0 mm 4 m/s 758 mmHg 77%
    09:00 +17°C° 0 mm 4 m/s 759 mmHg 74%
    10:00 +18°C° 0 mm 4 m/s 759 mmHg 71%
    11:00 +18°C° 0 mm 4 m/s 760 mmHg 68%
    12:00 +19°C° 0 mm 4 m/s 760 mmHg 66%
    13:00 +19°C° 0 mm 4 m/s 760 mmHg 66%
    14:00 +19°C° 0 mm 4 m/s 759 mmHg 66%
    15:00 +18°C° 0 mm 4 m/s 759 mmHg 66%
    16:00 +18°C° 0 mm 4 m/s 759 mmHg 68%
    17:00 +18°C° 0 mm 4 m/s 759 mmHg 69%
    18:00 +17°C° 0 mm 4 m/s 759 mmHg 70%
    19:00 +17°C° 0 mm 4 m/s 760 mmHg 72%
    20:00 +15°C° 0 mm 4 m/s 760 mmHg 74%
    21:00 +15°C° 0 mm 4 m/s 761 mmHg 76%
    22:00 +15°C° 0 mm 4 m/s 760 mmHg 78%
    23:00 +14°C° 0 mm 3 m/s 760 mmHg 80%
    Arată mai mult